PROGRESS-MS 27

Last updated on Wed Nov 20 2024 00:02:08 GMT+0000 (Coordinated Universal Time)

1 59913U 24103A 24324.33250844 .00020401 00000+0 36471-3 0 9991 2 59913 51.6392 266.7519 0007361 235.4110 124.6185 15.49963041 26966
UTC large
Height (km)
Speed (km/s)
/
Latitude / Longitude
Inclination (degrees)
Orbital Period (minutes)
Azimuth
Elevation
Range (km)
Doppler Factor

Next 0 passes for location: London (51.5072 / 0.1276)

Sorry there are no passes over London.